REU13I NTAA-KLAX

Flight info

Callsign REU13I
Flight time N/A
Altitude 37000
Route IKELO4E IKELO DCT MIKAT A220 MAEVA/N0476F390 DCT 10N138W DCT BORIC B454 TONYS B200 FICKY GOATZ2
Aircraft B77W/H-SDE1E2E3FGHIJ2J3J4J5M1RWXY/LB1D1

Departure

Time 2026-04-26 23:00
Airport Fa'a'ā International Airport (NTAA)

Arrival

Time N/A
Airport Los Angeles International Airport (KLAX)
Time Latitude Longitude Altitude Speed Heading
2026-04-26 19:01 -17.55885 -149.61069 22 ft 0 kts 144°
2026-04-26 22:40 -17.55885 -149.61070 22 ft 1 kts 144°
2026-04-26 22:40 -17.55873 -149.61079 21 ft 2 kts 129°
2026-04-26 22:40 -17.55866 -149.61093 22 ft 2 kts 114°
2026-04-26 22:41 -17.55861 -149.61107 22 ft 2 kts 101°
2026-04-26 22:41 -17.55859 -149.61122 22 ft 2 kts 88°
2026-04-26 22:41 -17.55861 -149.61137 22 ft 2 kts 74°
2026-04-26 22:41 -17.55866 -149.61153 22 ft 2 kts 61°
2026-04-26 22:42 -17.55874 -149.61165 22 ft 2 kts 52°
2026-04-26 22:42 -17.55883 -149.61177 22 ft 1 kts 53°
2026-04-26 22:42 -17.55885 -149.61179 22 ft 0 kts 53°
2026-04-26 22:54 -17.55884 -149.61179 22 ft 0 kts 53°
2026-04-26 22:54 -17.55875 -149.61166 22 ft 3 kts 53°
2026-04-26 22:54 -17.55856 -149.61140 22 ft 5 kts 52°
2026-04-26 22:55 -17.55827 -149.61101 21 ft 7 kts 51°
2026-04-26 22:55 -17.55777 -149.61075 22 ft 8 kts 359°
2026-04-26 22:55 -17.55732 -149.61098 21 ft 7 kts 327°
2026-04-26 22:55 -17.55684 -149.61116 21 ft 9 kts
2026-04-26 22:56 -17.55617 -149.61070 21 ft 14 kts 50°
2026-04-26 22:56 -17.55546 -149.60969 21 ft 19 kts 54°
2026-04-26 22:56 -17.55458 -149.60844 21 ft 23 kts 54°
2026-04-26 22:56 -17.55356 -149.60695 21 ft 27 kts 53°
2026-04-26 22:57 -17.55237 -149.60524 21 ft 30 kts 54°
2026-04-26 22:57 -17.55104 -149.60330 21 ft 34 kts 54°
2026-04-26 22:57 -17.54965 -149.60123 21 ft 35 kts 54°
2026-04-26 22:57 -17.54818 -149.59920 21 ft 35 kts 52°
2026-04-26 22:58 -17.54672 -149.59717 21 ft 27 kts 57°
2026-04-26 22:58 -17.54566 -149.59557 21 ft 27 kts 53°
2026-04-26 22:58 -17.54523 -149.59439 21 ft 8 kts 83°
2026-04-26 22:58 -17.54495 -149.59441 21 ft 6 kts 273°
2026-04-26 22:59 -17.54520 -149.59488 21 ft 8 kts 235°
2026-04-26 22:59 -17.54521 -149.59488 21 ft 0 kts 235°
2026-04-26 22:59 -17.54521 -149.59489 21 ft 1 kts 235°
2026-04-26 22:59 -17.54670 -149.59706 21 ft 77 kts 234°
2026-04-26 23:00 -17.55153 -149.60406 22 ft 156 kts 235°
2026-04-26 23:00 -17.55905 -149.61507 270 ft 202 kts 233°
2026-04-26 23:00 -17.56745 -149.62720 1090 ft 215 kts 234°
2026-04-26 23:00 -17.57593 -149.63956 2000 ft 214 kts 234°
2026-04-26 23:01 -17.58508 -149.65268 2503 ft 234 kts 234°
2026-04-26 23:01 -17.59338 -149.66795 3069 ft 252 kts 254°
2026-04-26 23:01 -17.59498 -149.68671 3591 ft 270 kts 282°
2026-04-26 23:01 -17.58765 -149.70444 4399 ft 272 kts 310°
2026-04-26 23:02 -17.57323 -149.71701 4864 ft 270 kts 336°
2026-04-26 23:02 -17.55512 -149.72130 4939 ft 266 kts
2026-04-26 23:02 -17.53706 -149.71675 4971 ft 273 kts 21°
2026-04-26 23:02 -17.51927 -149.70953 5927 ft 276 kts 21°
2026-04-26 23:03 -17.50203 -149.70244 7186 ft 268 kts 21°
2026-04-26 23:03 -17.48447 -149.69522 8032 ft 275 kts 21°
2026-04-26 23:03 -17.46655 -149.68784 8895 ft 280 kts 21°
2026-04-26 23:03 -17.44851 -149.68042 9811 ft 283 kts 21°
2026-04-26 23:04 -17.42986 -149.67274 10471 ft 297 kts 21°
2026-04-26 23:04 -17.40980 -149.66449 10972 ft 316 kts 21°
2026-04-26 23:04 -17.38870 -149.65579 11471 ft 335 kts 21°
2026-04-26 23:04 -17.36664 -149.64671 11957 ft 353 kts 22°
2026-04-26 23:05 -17.34310 -149.63701 12456 ft 371 kts 22°
2026-04-26 23:05 -17.31861 -149.62692 12982 ft 386 kts 22°
2026-04-26 23:05 -17.29358 -149.61603 13757 ft 392 kts 27°
2026-04-26 23:05 -17.27023 -149.60086 14608 ft 395 kts 38°
2026-04-26 23:06 -17.24864 -149.58310 15377 ft 400 kts 39°
2026-04-26 23:06 -17.22694 -149.56483 16121 ft 406 kts 39°
2026-04-26 23:06 -17.20468 -149.54610 16871 ft 411 kts 40°
2026-04-26 23:06 -17.18225 -149.52722 17623 ft 416 kts 39°
2026-04-26 23:07 -17.15980 -149.50836 18322 ft 421 kts 39°
2026-04-26 23:07 -17.13677 -149.48900 19004 ft 427 kts 39°
2026-04-26 23:07 -17.11341 -149.46939 19678 ft 432 kts 39°
2026-04-26 23:07 -17.08986 -149.44961 20331 ft 438 kts 39°
2026-04-26 23:08 -17.06606 -149.42966 20978 ft 443 kts 39°
2026-04-26 23:08 -17.04192 -149.40939 21610 ft 448 kts 39°
2026-04-26 23:08 -17.01746 -149.38888 22261 ft 452 kts 39°
2026-04-26 23:08 -16.99260 -149.36806 22890 ft 458 kts 39°
2026-04-26 23:09 -16.96787 -149.34735 23464 ft 464 kts 39°
2026-04-26 23:09 -16.94254 -149.32613 24030 ft 470 kts 39°
2026-04-26 23:09 -16.91684 -149.30461 24617 ft 476 kts 39°
2026-04-26 23:09 -16.89083 -149.28285 25220 ft 481 kts 39°
2026-04-26 23:10 -16.86456 -149.26086 25798 ft 486 kts 39°
2026-04-26 23:10 -16.83819 -149.23881 26366 ft 491 kts 39°
2026-04-26 23:10 -16.81034 -149.21748 26928 ft 497 kts 32°
2026-04-26 23:10 -16.77990 -149.20071 27503 ft 501 kts 23°
2026-04-26 23:11 -16.74701 -149.18764 28042 ft 507 kts 19°
2026-04-26 23:11 -16.71334 -149.17529 28597 ft 512 kts 18°
2026-04-26 23:11 -16.67965 -149.16301 29119 ft 517 kts 19°
2026-04-26 23:11 -16.64547 -149.15054 29813 ft 518 kts 19°
2026-04-26 23:12 -16.61158 -149.13817 30659 ft 516 kts 19°
2026-04-26 23:12 -16.57796 -149.12589 31487 ft 513 kts 19°
2026-04-26 23:12 -16.54422 -149.11356 32198 ft 512 kts 19°
2026-04-26 23:12 -16.51067 -149.10130 32836 ft 512 kts 19°
2026-04-26 23:13 -16.47716 -149.08905 33457 ft 512 kts 19°
2026-04-26 23:13 -16.44322 -149.07665 34137 ft 511 kts 19°
2026-04-26 23:13 -16.41007 -149.06455 34805 ft 509 kts 19°
2026-04-26 23:13 -16.37659 -149.05231 35473 ft 507 kts 19°
2026-04-26 23:14 -16.34340 -149.04019 36064 ft 506 kts 19°
2026-04-26 23:14 -16.30993 -149.02797 36577 ft 505 kts 19°
2026-04-26 23:14 -16.27709 -149.01599 36894 ft 507 kts 19°
2026-04-26 23:15 -16.21017 -148.99159 36891 ft 507 kts 19°
2026-04-26 23:15 -16.14352 -148.96730 36893 ft 506 kts 19°
2026-04-26 23:16 -16.07688 -148.94302 36892 ft 506 kts 19°
2026-04-26 23:16 -16.01022 -148.91876 36892 ft 507 kts 19°
2026-04-26 23:17 -15.94358 -148.89453 36896 ft 506 kts 19°
2026-04-26 23:17 -15.87723 -148.87042 36884 ft 507 kts 19°
2026-04-26 23:18 -15.81040 -148.84615 36883 ft 506 kts 19°
2026-04-26 23:18 -15.74408 -148.82208 36885 ft 506 kts 19°
2026-04-26 23:19 -15.67751 -148.79793 36884 ft 506 kts 19°
2026-04-26 23:19 -15.61208 -148.77106 36888 ft 505 kts 22°
2026-04-26 23:20 -15.54694 -148.74370 36888 ft 506 kts 22°
2026-04-26 23:20 -15.48134 -148.71628 36891 ft 505 kts 22°
2026-04-26 23:21 -15.41614 -148.68913 36890 ft 506 kts 22°
2026-04-26 23:21 -15.35018 -148.66173 36890 ft 506 kts 22°
2026-04-26 23:22 -15.28468 -148.63454 36891 ft 506 kts 22°
2026-04-26 23:22 -15.21925 -148.60742 36892 ft 505 kts 22°
2026-04-26 23:23 -15.15392 -148.58037 36893 ft 505 kts 22°
2026-04-26 23:23 -15.08874 -148.55341 36894 ft 505 kts 22°
2026-04-26 23:24 -15.02328 -148.52634 36894 ft 504 kts 22°
2026-04-26 23:24 -14.95843 -148.49918 36896 ft 504 kts 23°
2026-04-26 23:25 -14.89350 -148.47145 36888 ft 504 kts 23°
2026-04-26 23:25 -14.82831 -148.44368 36883 ft 504 kts 23°
2026-04-26 23:26 -14.76350 -148.41609 36877 ft 504 kts 23°
2026-04-26 23:26 -14.69821 -148.38834 36876 ft 505 kts 23°
2026-04-26 23:27 -14.63346 -148.36084 36876 ft 504 kts 23°
2026-04-26 23:27 -14.56837 -148.33321 36872 ft 505 kts 23°
2026-04-26 23:28 -14.50310 -148.30553 36870 ft 504 kts 23°
2026-04-26 23:28 -14.43827 -148.27805 36868 ft 504 kts 23°
2026-04-26 23:29 -14.37338 -148.25055 36870 ft 504 kts 23°
2026-04-26 23:29 -14.30859 -148.22313 36865 ft 503 kts 23°
2026-04-26 23:30 -14.24379 -148.19571 36867 ft 503 kts 23°